Location: Newark
(41.0400°S, 62.7845°W)
Time: 16:01:15
(UTC+00:00)

Vanguard 2 Rocket - Pass Details

Date: 06 December 2021
Orbit: 553 x 3325 km, 32.9° (Epoch: 23 January)

Event Time Altitude Azimuth Distance (km) Brightness Sun altitude
Rises 15:09:19 0° 265° (W) 5,506 10.7 68.4°
Reaches altitude 10° 15:15:20 10° 283° (WNW) 3,850 10.2 69.0°
Maximum altitude 15:20:13 15° 314° (NW) 2,899 9.8 69.5°
Drops below altitude 10° 15:24:02 10° 348° (NNW) 2,845 9.8 69.8°
Sets 15:27:25 0° 11° (NNE) 3,414 10.1 70.1°
